Location: Kuffner-Sternwarte
(48.2130°N, 16.2960°E)
Time: 21:43:41
(UTC+02:00)

OTV 5 (USA 277) - Visible Passes

Search period start: 16 October 2019 00:00
Search period end: 26 October 2019 00:00
Orbit: 310 x 324 km, 54.5° (Epoch: 08 October)

Date Brightness Start Highest point End Pass type
(mag) Time Alt. Az. Time Alt. Az. Time Alt. Az.
16 Oct ? 04:36:26 12° ENE 04:36:26 12° ENE 04:36:45 10° ENE visible
16 Oct ? 06:07:19 18° NW 06:09:11 61° NNE 06:11:54 10° ESE visible
17 Oct ? 04:50:44 18° ENE 04:50:44 18° ENE 04:51:44 10° ENE visible
17 Oct ? 06:21:37 15° WNW 06:23:45 59° SW 06:26:26 10° SE visible
18 Oct ? 05:05:07 26° E 05:05:07 26° E 05:06:38 10° E visible
18 Oct ? 06:36:01 11° W 06:38:11 25° SW 06:40:31 10° SSE visible
19 Oct ? 05:19:36 35° ESE 05:19:36 35° ESE 05:21:20 10° ESE visible
20 Oct ? 05:34:13 25° SSE 05:34:13 25° SSE 05:35:40 10° SSE visible
21 Oct ? 05:48:58 12° S 05:48:58 12° S 05:49:22 10° S visible
